Home   Weather   Mumbai   Past weeks
Flag for India

Past Weather in Mumbai, Maharashtra, India — Yesterday and Last 2 Weeks

Currently: 73 °F. Haze. (Weather station: Mumbai / Santacruz, India). See more current weather

Past Weather in Mumbai — Graph

°F

Mumbai Temperature Yesterday

Maximum temperature yesterday: 84 °F (at 11:00 am)
Minimum temperature yesterday: 75 °F (at 4:00 am)
Average temperature yesterday: 79 °F

High & Low Weather Summary for the Past Weeks

 TemperatureHumidityPressure
High93 °F (Feb 16, 12:00 pm)89% (Feb 21, 5:00 am)30.07 "Hg (Feb 21, 5:00 am)
Low70 °F (Feb 11, 4:00 am)21% (Feb 13, 12:30 pm)29.80 "Hg (Feb 18, 4:30 pm)
Average82 °F49%29.94 "Hg
* Reported Feb 8 3:30 am — Feb 23 4:00 am, Mumbai. Weather by CustomWeather, © 2024

Note: Actual official high and low records may vary slightly from our data, if they occured in-between our weather recording intervals... More about our weather records

Mumbai Weather History for the Previous 24 Hours

Scroll right to see more
 ConditionsComfort  
Time TempWeatherWind HumidityBarometerVisibility
4:00 am
Fri, Feb 23
73 °FHaze.3 mph83%29.92 "Hg2 mi
3:30 am75 °FHaze.3 mph78%29.92 "Hg2 mi
3:00 am75 °FHaze.6 mph78%29.92 "Hg2 mi
2:30 am75 °FHaze.6 mph78%29.92 "Hg2 mi
2:00 am75 °FHaze.6 mph78%29.95 "Hg2 mi
1:30 am75 °FHaze.6 mph78%29.95 "Hg2 mi
1:00 am75 °FHaze.3 mph78%29.95 "Hg2 mi
12:30 am77 °FHaze.6 mph74%29.95 "Hg2 mi
12:00 am77 °FHaze.6 mph74%29.95 "Hg2 mi
11:30 pm
Thu, Feb 22
77 °FHaze.6 mph74%29.95 "Hg2 mi
11:00 pm77 °FHaze.No wind74%29.95 "Hg2 mi
10:30 pm77 °FHaze.5 mph69%29.95 "Hg2 mi
10:00 pm79 °FHaze.6 mph65%29.98 "Hg2 mi
9:30 pm77 °FHaze.9 mph69%29.95 "Hg2 mi
9:00 pm77 °FHaze.9 mph74%29.95 "Hg2 mi
8:30 pm77 °FHaze.8 mph74%29.95 "Hg2 mi
8:00 pm77 °FHaze.10 mph74%29.95 "Hg2 mi
7:30 pm79 °FHaze.10 mph70%29.92 "Hg2 mi
7:00 pm79 °FHaze.12 mph70%29.92 "Hg2 mi
6:30 pm79 °FHaze.7 mph70%29.92 "Hg2 mi
6:00 pm81 °FHaze.10 mph66%29.89 "Hg2 mi
5:30 pm82 °FHaze.12 mph62%29.89 "Hg2 mi
5:00 pm82 °FPassing clouds.9 mph58%29.89 "Hg2 mi
4:30 pm82 °FPassing clouds.13 mph58%29.89 "Hg2 mi
4:00 pm82 °FHaze.10 mph62%29.89 "Hg2 mi
3:30 pm82 °FHaze.12 mph62%29.89 "Hg2 mi
3:00 pm82 °FHaze.9 mph66%29.89 "Hg2 mi
2:30 pm82 °FHaze.16 mph66%29.89 "Hg2 mi
2:00 pm84 °FHaze.9 mph62%29.92 "Hg2 mi
1:30 pm82 °FHaze.10 mph66%29.92 "Hg2 mi
1:00 pm84 °FPassing clouds.15 mph62%29.92 "Hg2 mi
12:30 pm82 °FPassing clouds.13 mph66%29.95 "Hg2 mi
12:00 pm82 °FPassing clouds.13 mph66%29.95 "Hg2 mi
11:30 am84 °FPassing clouds.9 mph58%29.98 "Hg2 mi
11:00 am84 °FHaze.5 mph58%29.98 "Hg2 mi
10:30 am81 °FHaze.7 mph62%29.98 "Hg1 mi
10:00 am81 °FHaze.9 mph66%29.98 "Hg1 mi
9:30 am79 °FFog.6 mph74%29.98 "Hg1 mi
9:00 am79 °FFog.7 mph74%29.98 "Hg1 mi
8:30 am77 °FFog.7 mph79%29.98 "Hg1 mi
8:00 am77 °FFog.7 mph79%29.98 "Hg1 mi
7:30 am75 °FHaze.5 mph89%29.95 "Hg1 mi
7:00 am77 °FHaze.8 mph83%29.92 "Hg2 mi
6:30 am77 °FHaze.7 mph83%29.92 "Hg2 mi
5:00 am75 °FHaze.5 mph83%29.89 "Hg2 mi
Weather by CustomWeather, © 2024

See weather overview